Location: Bay Ridge
(40.6340°N, 74.0146°W)
Time: 09:42:29
(UTC+00:00)

Cosmos 2016 Rocket - Pass Details

Date: 15 November 2019
Orbit: 947 x 1000 km, 83.0° (Epoch: 06 December)

Event Time Altitude Azimuth Distance (km) Brightness Sun altitude
Rises 10:27:34 0° 185° (S) 3,640 7.1 -14.3°
Reaches altitude 10° 10:30:02 10° 186° (S) 2,705 6.4 -13.9°
Maximum altitude 10:36:15 89° 277° (W) 986 4.0 -12.7°
Drops below altitude 10° 10:42:36 10° 7° (N) 2,758 6.3 -11.5°
Sets 10:45:09 0° 8° (N) 3,717 7.0 -11.1°
